[[{"header":{"parameterUnit":"m.s-1","parameterCategory":1,"la1":30.2991,"la2":30.254,"lo1":-89.0895,"lo2":-89.0444,"dy":0.0017,"dx":0.0017,"nx":28,"ny":28,"refTime":"2024-10-11T21:00:00:Z","depth":0,"parameterNumber":2,"parameterNumberName":"U-component_of_WINDS"},"data":[0,0,0,0,0,0,0,0,0,0,0,0,0,0,0,0,0,0,0,0,0,0,0,0,0,0,0,0,0,0,0,0,0,0,0,0,0,0,0,0,0,0,0,0,0,0,0,0,0,0,0,0,0,0,0,0,0,0,-2.3076,-2.3077,0,-2.3144,-2.3145,-2.3146,-2.3134,-2.3132,-2.3131,-2.313,-2.32,-2.3203,-2.3206,0,0,0,0,0,0,0,0,0,0,0,0,0,-2.2936,-2.2939,-2.3076,-2.3077,-2.3078,-2.3144,-2.3145,-2.3146,-2.3134,-2.3132,-2.3131,-2.3129,-2.3199,-2.3203,-2.3206,0,0,0,0,0,0,0,0,0,0,0,0,0,-2.3,-2.294,-2.3076,-2.308,-2.3081,-2.3144,-2.3145,-2.3146,-2.3134,-2.3132,-2.313,-2.3129,-2.3198,-2.3202,-2.3207,-2.3271,0,0,-2.3221,-2.3223,0,0,0,0,0,0,0,0,-2.2997,-2.3005,-2.3078,-2.308,-2.3081,-2.3129,-2.3122,-2.3188,-2.3135,-2.3114,-2.313,-2.3128,-2.3178,-2.3184,-2.3201,-2.3274,-2.3277,-2.3221,-2.3224,-2.3226,-2.3227,0,0,0,0,0,0,0,-2.2992,-2.3002,-2.3103,-2.308,-2.3081,-2.3078,-2.3085,-2.3134,-2.3155,-2.3116,-2.3115,-2.3123,-2.3178,-2.3196,-2.3202,-2.3278,-2.3221,-2.3225,-2.3228,-2.3229,-2.3409,-2.3411,0,0,0,0,0,0,-2.2986,-2.2999,-2.3101,-2.3105,-2.3033,-2.3082,-2.309,-2.3115,-2.3155,-2.3159,-2.3125,-2.3122,-2.319,-2.3197,-2.3205,-2.3283,-2.3226,-2.323,-2.3232,-2.3407,-2.3409,-2.3411,0,0,0,0,0,0,-2.2984,-2.2996,-2.3098,-2.3052,-2.3065,-2.3087,-2.3115,-2.3117,-2.3136,-2.3161,-2.3165,-2.3139,-2.3189,-2.3198,-2.3255,-2.3285,-2.3232,-2.3236,-2.3404,-2.3407,-2.341,-2.3439,0,0,0,0,0,0,-2.298,-2.2995,-2.3019,-2.3052,-2.3067,-2.3147,-2.3117,-2.312,-2.3143,-2.3141,-2.3176,-2.318,-2.3188,-2.3248,-2.3259,-2.329,-2.324,-2.3401,-2.3405,-2.3409,-2.3435,-2.3442,-2.3449,0,0,0,0,0,-2.2975,-2.3024,-2.302,-2.3033,-2.3098,-2.3149,-2.3157,-2.3165,-2.3146,-2.3171,-2.3187,-2.3179,-2.328,-2.3254,-2.3266,-2.3299,-2.34,-2.3404,-2.3409,-2.3432,-2.3441,-2.3448,0,0,0,0,0,0,-2.2994,-2.3029,-2.3025,-2.3087,-2.3115,-2.3146,-2.3178,-2.3174,-2.3208,-2.3204,-2.3212,-2.322,-2.3278,-2.3294,-2.3265,-2.3364,-2.3337,-2.3344,-2.3351,-2.3359,-2.3366,-2.3361,-2.3243,0,0,0,0,0,-2.3005,-2.3043,-2.3072,-2.3124,-2.3138,-2.3156,-2.3178,-2.3181,-2.3211,-2.3223,-2.3244,-2.3273,-2.3311,-2.3336,-2.3373,-2.3438,-2.3445,-2.3466,-2.3473,-2.3479,-2.3485,-2.3521,-2.3531,-2.3426,-2.3426,-2.3426,0,0,-2.3029,-2.3053,-2.3076,-2.3128,-2.315,-2.319,-2.3166,-2.3208,-2.3238,-2.3229,-2.3284,-2.33,-2.3333,-2.3394,-2.3422,-2.341,-2.3515,-2.3484,-2.3489,-2.3492,-2.3527,-2.3537,-2.3545,-2.343,-2.3429,-2.3429,0,0,-2.3093,-2.3114,-2.316,-2.3183,-2.3217,-2.3229,-2.324,-2.3273,-2.3283,-2.3338,-2.3333,-2.3368,-2.3434,-2.3458,-2.3479,-2.3553,-2.3547,-2.3564,-2.3599,-2.3635,-2.3643,-2.365,-2.3677,-2.3686,-2.3571,-2.3571,-2.3571,0,-2.3118,-2.3177,-2.3184,-2.3228,-2.3251,-2.3245,-2.3292,-2.3314,-2.3359,-2.3375,-2.336,-2.3443,-2.3465,-2.3532,-2.355,-2.3567,-2.358,-2.356,-2.3641,-2.3648,-2.3655,-2.3681,-2.3691,-2.3573,-2.3572,-2.3572,-2.3572,0,-2.3207,-2.3248,-2.3281,-2.3324,-2.3351,-2.3396,-2.341,-2.3437,-2.3438,-2.3452,-2.3508,-2.3534,-2.3576,-2.3593,-2.3594,-2.366,-2.3651,-2.3639,-2.3612,-2.3667,-2.3691,-2.3701,-2.3575,-2.3575,-2.3574,-2.3574,0,0,-2.3283,-2.3331,-2.3343,-2.3363,-2.34,-2.3432,-2.3477,-2.3519,-2.3541,-2.3572,-2.3611,-2.3667,-2.3656,-2.3679,-2.3684,-2.3715,-2.3772,-2.3699,-2.37,-2.3712,-2.3847,-2.3856,-2.3867,-2.3769,-2.3771,-2.3772,-2.3844,0,-2.3351,-2.343,-2.3438,-2.3509,-2.3548,-2.3543,-2.3583,-2.361,-2.3624,-2.3659,-2.3675,-2.3714,-2.3697,-2.3711,-2.3741,-2.3759,-2.38,-2.3754,-2.3805,-2.3806,-2.3796,-2.388,-2.3889,-2.3956,-2.3854,-2.3855,-2.3857,0,-2.3439,-2.3473,-2.3548,-2.3581,-2.3598,-2.3633,-2.3672,-2.3705,-2.3737,-2.3745,-2.3772,-2.3772,-2.3819,-2.3791,-2.3857,-2.3825,-2.3847,-2.3859,-2.3862,-2.3866,-2.3835,-2.3887,-2.3977,-2.3987,-2.3871,-2.387,-2.3869,0,-2.3488,-2.3552,-2.3606,-2.3623,-2.3663,-2.3687,-2.3705,-2.3735,-2.376,-2.3794,-2.381,-2.3849,-2.3871,-2.3901,-2.3913,-2.3891,-2.3978,-2.3951,-2.3986,-2.3986,-2.4004,-2.4003,-2.4099,-2.4018,-2.4018,-2.4018,-2.4018,0,-2.3562,-2.3608,-2.3628,-2.3661,-2.3712,-2.3722,-2.3773,-2.379,-2.3816,-2.3853,-2.3852,-2.3886,-2.3899,-2.3936,-2.3945,-2.3998,-2.4008,-2.4016,-2.4018,-2.4016,-2.4015,-2.403,-2.4025,-2.4021,-2.402,-2.4019,-2.4019,0,-2.3625,-2.364,-2.3698,-2.3731,-2.3741,-2.3777,-2.3806,-2.3838,-2.3852,-2.3897,-2.3909,-2.3931,-2.3974,-2.3988,-2.404,-2.4047,-2.4108,-2.4106,-2.4098,-2.4098,-2.4133,-2.4129,-2.4242,-2.4257,-2.4166,-2.4167,-2.4168,0,-2.3671,-2.3706,-2.3743,-2.3768,-2.3786,-2.3825,-2.3851,-2.3862,-2.3888,-2.3927,-2.3955,-2.3997,-2.4032,-2.4101,-2.4122,-2.4162,-2.4161,-2.4198,-2.4167,-2.4164,-2.4162,-2.4159,-2.4163,-2.4203,-2.4204,-2.4205,-2.4206,0,-2.3751,-2.3757,-2.3793,-2.3833,-2.3863,-2.3894,-2.3925,-2.3945,-2.396,-2.399,-2.4034,-2.4061,-2.4115,-2.4157,-2.4198,-2.4217,-2.4214,-2.4215,-2.4226,-2.4224,-2.4217,-2.4221,-2.4113,-2.4213,-2.4212,-2.4211,-2.4211,-2.4211,-2.3807,-2.3838,-2.387,-2.391,-2.3934,-2.3963,-2.3995,-2.4013,-2.405,-2.4094,-2.4099,-2.4146,-2.4178,-2.4233,-2.4254,-2.4291,-2.4281,-2.4296,-2.43,-2.4303,-2.4306,-2.4212,-2.4299,-2.4299,-2.4299,-2.4299,-2.4298,0,-2.3887,-2.3907,-2.3945,-2.3987,-2.402,-2.4014,-2.4048,-2.4075,-2.4117,-2.4147,-2.4181,-2.4232,-2.4274,-2.4298,-2.434,-2.4365,-2.4365,-2.4376,-2.4374,-2.4379,-2.4313,-2.43,-2.4376,-2.4376,-2.4376,-2.4376,-2.4376,-2.4375,-2.3932,-2.3985,-2.3995,-2.4061,-2.4081,-2.4127,-2.4147,-2.4174,-2.4198,-2.4254,-2.4289,-2.4305,-2.4333,-2.4377,-2.4415,-2.4421,-2.4436,-2.4448,-2.4453,-2.4391,-2.4383,-2.4376,-2.4363,-2.4452,-2.4452,-2.4516,-2.4517,-2.4517]},{"header":{"parameterUnit":"m.s-1","parameterCategory":1,"la1":30.2991,"la2":30.254,"lo1":-89.0895,"lo2":-89.0444,"dy":0.0017,"dx":0.0017,"nx":28,"ny":28,"refTime":"2024-10-11T21:00:00:Z","depth":0,"parameterNumber":3,"parameterNumberName":"V-component_of_WINDS"},"data":[0,0,0,0,0,0,0,0,0,0,0,0,0,0,0,0,0,0,0,0,0,0,0,0,0,0,0,0,0,0,0,0,0,0,0,0,0,0,0,0,0,0,0,0,0,0,0,0,0,0,0,0,0,0,0,0,0,0,-0.9604,-0.9604,0,-0.9593,-0.9593,-0.9593,-0.9547,-0.9546,-0.9545,-0.9544,-0.9534,-0.9535,-0.9536,0,0,0,0,0,0,0,0,0,0,0,0,0,-0.9589,-0.959,-0.9604,-0.9604,-0.9604,-0.9593,-0.9593,-0.9593,-0.9547,-0.9546,-0.9544,-0.9543,-0.9534,-0.9535,-0.9536,0,0,0,0,0,0,0,0,0,0,0,0,0,-0.9589,-0.959,-0.9604,-0.958,-0.9578,-0.9593,-0.9593,-0.9593,-0.9547,-0.9546,-0.9544,-0.9543,-0.9534,-0.9535,-0.9536,-0.9575,0,0,-0.9539,-0.954,0,0,0,0,0,0,0,0,-0.9589,-0.9589,-0.9584,-0.9582,-0.9579,-0.957,-0.9584,-0.9587,-0.9548,-0.9559,-0.9544,-0.9542,-0.9548,-0.9547,-0.9549,-0.9574,-0.9574,-0.954,-0.954,-0.9541,-0.9541,0,0,0,0,0,0,0,-0.9589,-0.959,-0.96,-0.9584,-0.9581,-0.957,-0.9568,-0.9584,-0.9562,-0.9558,-0.9554,-0.9554,-0.9546,-0.9548,-0.9548,-0.9574,-0.954,-0.9541,-0.9541,-0.9542,-0.963,-0.9632,0,0,0,0,0,0,-0.9592,-0.959,-0.96,-0.96,-0.958,-0.9572,-0.957,-0.9574,-0.9562,-0.9559,-0.9555,-0.9552,-0.9547,-0.9547,-0.9548,-0.9592,-0.9541,-0.9542,-0.9542,-0.9629,-0.9631,-0.9633,0,0,0,0,0,0,-0.9592,-0.9593,-0.9601,-0.9594,-0.9594,-0.9574,-0.9579,-0.9575,-0.9577,-0.956,-0.9556,-0.9561,-0.9546,-0.9546,-0.9568,-0.9591,-0.9542,-0.9543,-0.9627,-0.9629,-0.9632,-0.9681,0,0,0,0,0,0,-0.9592,-0.9594,-0.9608,-0.9594,-0.9594,-0.9621,-0.9581,-0.9576,-0.9578,-0.9574,-0.9564,-0.9561,-0.9544,-0.9567,-0.9569,-0.9592,-0.9544,-0.9625,-0.9628,-0.9631,-0.9678,-0.9685,-0.9692,0,0,0,0,0,-0.9591,-0.9623,-0.9609,-0.961,-0.9611,-0.9622,-0.9622,-0.9602,-0.9581,-0.9595,-0.9584,-0.9562,-0.9588,-0.9569,-0.9572,-0.9595,-0.9623,-0.9627,-0.9631,-0.9674,-0.9684,-0.9692,0,0,0,0,0,0,-0.964,-0.962,-0.9605,-0.9633,-0.9629,-0.9614,-0.9632,-0.9612,-0.9616,-0.9611,-0.9586,-0.9584,-0.961,-0.9605,-0.9584,-0.9632,-0.9602,-0.9606,-0.9634,-0.9643,-0.965,-0.9651,-0.9545,0,0,0,0,0,-0.9654,-0.9663,-0.9646,-0.9673,-0.9672,-0.9652,-0.9656,-0.964,-0.9636,-0.9635,-0.9626,-0.9623,-0.9631,-0.9637,-0.9643,-0.9677,-0.9674,-0.9694,-0.9701,-0.9707,-0.9711,-0.9729,-0.9737,-0.9645,-0.9645,-0.9645,0,0,-0.9683,-0.9673,-0.9681,-0.9682,-0.9678,-0.9689,-0.9651,-0.9665,-0.9673,-0.9637,-0.9657,-0.965,-0.9646,-0.9674,-0.9686,-0.967,-0.9736,-0.9712,-0.9717,-0.9718,-0.9734,-0.9742,-0.975,-0.9648,-0.9647,-0.9647,0,0,-0.9741,-0.9735,-0.9756,-0.9752,-0.9746,-0.9733,-0.9738,-0.9726,-0.972,-0.9739,-0.9712,-0.9722,-0.9736,-0.9734,-0.9735,-0.9793,-0.9772,-0.9796,-0.9833,-0.985,-0.9858,-0.9864,-0.9885,-0.9892,-0.98,-0.98,-0.98,0,-0.9778,-0.9793,-0.977,-0.9785,-0.9786,-0.9753,-0.9775,-0.9773,-0.9769,-0.9771,-0.9754,-0.977,-0.9765,-0.9792,-0.9806,-0.9808,-0.9813,-0.9797,-0.9858,-0.9864,-0.987,-0.989,-0.9897,-0.9803,-0.9802,-0.9802,-0.9802,0,-0.9839,-0.985,-0.9868,-0.9865,-0.9868,-0.9886,-0.9866,-0.9873,-0.9857,-0.9845,-0.9866,-0.9858,-0.9863,-0.9868,-0.9853,-0.9893,-0.9883,-0.9863,-0.9832,-0.9882,-0.99,-0.9907,-0.9807,-0.9806,-0.9805,-0.9804,0,0,-0.9928,-0.9911,-0.9918,-0.9916,-0.9906,-0.9915,-0.9932,-0.9935,-0.9941,-0.994,-0.9954,-0.9966,-0.9947,-0.9948,-0.9932,-0.9947,-0.9994,-0.9925,-0.9924,-0.9938,-1.0038,-1.0054,-1.0063,-0.998,-0.9981,-0.9983,-1.0038,0,-0.9984,-1.0011,-0.999,-1.0022,-1.0032,-1.0001,-1.0016,-1.0012,-1.0002,-1.001,-0.9999,-1.0008,-0.9982,-0.9982,-0.9996,-0.9985,-1.0014,-0.9981,-0.9994,-0.9994,-0.9996,-1.0072,-1.0089,-1.0142,-1.0045,-1.0046,-1.0047,0,-1.0053,-1.0053,-1.0086,-1.0074,-1.0077,-1.0091,-1.0092,-1.0099,-1.0095,-1.0086,-1.0088,-1.0068,-1.0084,-1.0054,-1.0077,-1.0055,-1.0059,-1.0055,-1.0057,-1.0057,-1.0024,-1.0075,-1.0158,-1.0166,-1.0058,-1.0057,-1.0056,0,-1.0114,-1.0124,-1.0144,-1.0143,-1.013,-1.014,-1.0135,-1.0129,-1.0132,-1.0133,-1.0135,-1.0139,-1.0141,-1.0145,-1.0127,-1.0107,-1.0153,-1.0121,-1.0147,-1.0147,-1.0158,-1.0158,-1.0243,-1.0161,-1.016,-1.016,-1.016,0,-1.0179,-1.02,-1.0171,-1.0184,-1.0207,-1.0183,-1.0206,-1.0198,-1.0193,-1.0204,-1.0177,-1.0188,-1.0164,-1.0173,-1.0159,-1.018,-1.0182,-1.0176,-1.0172,-1.0178,-1.0179,-1.0181,-1.0177,-1.0162,-1.0162,-1.0161,-1.0161,0,-1.0252,-1.0233,-1.0253,-1.0239,-1.0236,-1.0253,-1.0241,-1.0253,-1.0241,-1.0255,-1.0257,-1.0239,-1.0248,-1.023,-1.0237,-1.0228,-1.0258,-1.0248,-1.0259,-1.0257,-1.0284,-1.0281,-1.0373,-1.0384,-1.0295,-1.0295,-1.0296,0,-1.0294,-1.0309,-1.0296,-1.0301,-1.0297,-1.0306,-1.0309,-1.0286,-1.029,-1.0286,-1.0298,-1.0305,-1.0309,-1.0325,-1.0313,-1.0318,-1.0308,-1.034,-1.0309,-1.0315,-1.0309,-1.0309,-1.031,-1.0347,-1.0348,-1.0349,-1.035,0,-1.0371,-1.0361,-1.0366,-1.0368,-1.0372,-1.0372,-1.0371,-1.0377,-1.0353,-1.0359,-1.0368,-1.0371,-1.0377,-1.0385,-1.0387,-1.0383,-1.0363,-1.0359,-1.0366,-1.0372,-1.0378,-1.0376,-1.0277,-1.0358,-1.0357,-1.0356,-1.0356,-1.0355,-1.043,-1.0442,-1.0434,-1.0441,-1.0437,-1.0437,-1.0447,-1.0436,-1.0442,-1.0445,-1.0432,-1.0443,-1.0438,-1.0439,-1.0437,-1.0446,-1.0432,-1.0441,-1.0444,-1.0446,-1.0451,-1.0377,-1.0447,-1.0446,-1.0446,-1.0446,-1.0446,0,-1.0506,-1.0499,-1.0505,-1.0504,-1.0509,-1.0489,-1.0486,-1.0492,-1.0502,-1.0499,-1.0503,-1.0513,-1.052,-1.0508,-1.0513,-1.0523,-1.0514,-1.0525,-1.0524,-1.0524,-1.0463,-1.0457,-1.0532,-1.0532,-1.0532,-1.0532,-1.0532,-1.0532,-1.0546,-1.0565,-1.0554,-1.0572,-1.0565,-1.0576,-1.0576,-1.0576,-1.0573,-1.0585,-1.059,-1.0582,-1.0576,-1.058,-1.0585,-1.0582,-1.0585,-1.06,-1.0593,-1.0537,-1.0528,-1.052,-1.0514,-1.0601,-1.0601,-1.0653,-1.0654,-1.0654]}]]